Location: Bailleul
(50.3375°N, 2.8513°E)
Time: 20:06:19
(UTC+00:00)

Terra - Pass Details

Date: 07 August 2021
Orbit: 701 x 703 km, 98.2° (Epoch: 17 September)

Event Time Altitude Azimuth Distance (km) Brightness Sun altitude
Exits shadow 20:42:02 15° 123° (ESE) 1,845 3.3 -11.3°
Maximum altitude 20:45:22 34° 65° (ENE) 1,150 2.7 -11.6°
Drops below altitude 10° 20:49:40 10° 1° (N) 2,184 5.0 -12.1°
Sets 20:52:05 0° 353° (N) 3,107 6.1 -12.4°
